(75014) = 1997 EO39 = 1999 UO4

Discovered at Fountain Hills on 1999-10-31 by C. W. Juels.

Orbit

Orbit type: Main Belt

Note: WebGL enabled browser required.

epoch2023-09-13.0
epoch JD2460200.5
perihelion date2021-02-25.10867
perihelion JD2459270.60867
argument of perihelion (°)121.68239
ascending node (°)319.18016
inclination (°)3.51448
eccentricity0.1411100
perihelion distance (AU)1.9796809
Tisserand w.r.t. Jupiter3.6
ΔV w.r.t. Earth (km/sec)8.8
semimajor axis (AU)2.3049295
mean anomaly (°)261.90848
mean daily motion (°/day)0.28165490
aphelion distance (AU)2.630
period (years)3.5
P-vector [x]0.15775720
P-vector [y]0.88397811
P-vector [z]0.44010836
Q-vector [x]-0.98666457
Q-vector [y]0.15919176
Q-vector [z]0.03392665
absolute magnitude16.1
phase slope0.15
uncertainty0
referenceMPEC 2024-A48
observations used1288
oppositions16
arc length (days)9772
first opposition used1997
last opposition used2023
residual rms (arc-secs)0.69
perturbers coarse indicatorM-v
perturbers precise indicator003Ek
first observation date used1997-03-05.0
last observation date used2023-12-06.0
computer nameMPCLINUX
JD of orbit computation2456819.530173
perihelion JD uncertainty (days)7.3706E-05
argument of perihelion uncertainty (°)6.3059E-05
ascending node uncertainty (°)5.8157E-05
inclination uncertainty (°)3.5457E-06
eccentricity uncertainty 2.7274E-08
perihelion distance uncertainty (AU)6.3526E-08
Minimum Orbit Intersection Distances (in AU)
for orbit epoch: 2460200.5, reference: E2024-A48
Mercury1.67208
Venus1.26074
Earth0.99693
Mars0.39528
Jupiter2.57968
Saturn7.06873
Uranus16.1352
Neptune27.643

Observations

1306 total observations over interval: 1997 03 05.17028 – 2023 12 06.231946
These data are available for download (format description).

Date (UT) J2000 RA J2000 Dec Magn Location Ref
1997 03 05.17028 09 21 26.55 +14 15 36.3   704 – Lincoln Laboratory ETS, New Mexico MPC 29510
1997 03 05.31506 09 21 20.06 +14 15 47.0   704 – Lincoln Laboratory ETS, New Mexico MPC 29510
1997 03 06.16987 09 20 45.26 +14 17 00.8   704 – Lincoln Laboratory ETS, New Mexico MPC 29510
1997 03 06.31520 09 20 39.01 +14 17 12.5   704 – Lincoln Laboratory ETS, New Mexico MPC 29510
1999 10 07.41225 02 42 23.99 +22 01 29.9 18.4   704 – Lincoln Laboratory ETS, New Mexico MPS 12030
1999 10 07.42264 02 42 23.59 +22 01 29.0 18.8   704 – Lincoln Laboratory ETS, New Mexico MPS 12030
1999 10 07.43302 02 42 23.18 +22 01 28.6 18.7   704 – Lincoln Laboratory ETS, New Mexico MPS 12030
1999 10 12.27186 02 39 18.02 +22 00 28.4 19.1   704 – Lincoln Laboratory ETS, New Mexico MPS 12030
1999 10 12.28556 02 39 17.31 +22 00 27.5 19.3   704 – Lincoln Laboratory ETS, New Mexico MPS 12030
1999 10 12.29919 02 39 16.75 +22 00 27.7 18.9   704 – Lincoln Laboratory ETS, New Mexico MPS 12030
1999 10 12.31282 02 39 16.17 +22 00 27.1 18.9   704 – Lincoln Laboratory ETS, New Mexico MPS 12030
1999 10 12.32698 02 39 15.52 +22 00 27.0 18.8   704 – Lincoln Laboratory ETS, New Mexico MPS 12030
1999 10 22.23787 02 30 54.64 +21 43 35.0 18.3   704 – Lincoln Laboratory ETS, New Mexico MPS 12030
1999 10 22.25078 02 30 53.91 +21 43 33.7 18.1   704 – Lincoln Laboratory ETS, New Mexico MPS 12030
1999 10 22.26381 02 30 53.11 +21 43 31.8 18.2   704 – Lincoln Laboratory ETS, New Mexico MPS 12030
1999 10 22.27675 02 30 52.36 +21 43 30.3 18.5   704 – Lincoln Laboratory ETS, New Mexico MPS 12030
1999 10 22.28964 02 30 51.61 +21 43 28.3 19.3   704 – Lincoln Laboratory ETS, New Mexico MPS 12030
1999 10 31.25267 02 21 50.68 +21 12 19.9 17.7 R 678 – Fountain Hills MPS 7400
1999 10 31.30729 02 21 47.10 +21 12 06.3 18.1 R 678 – Fountain Hills MPS 7400
1999 11 01.17469 02 20 53.28 +21 08 24.1 18.5   678 – Fountain Hills MPS 7400
1999 11 01.19353 02 20 52.15 +21 08 19.0 18.4   678 – Fountain Hills MPS 7400
1999 11 01.25611 02 20 48.00 +21 08 02.8 18.4 R 699 – Lowell Observatory-LONEOS MPS 12030
1999 11 01.28670 02 20 45.98 +21 07 55.3   699 – Lowell Observatory-LONEOS MPS 12030
1999 11 01.31731 02 20 43.97 +21 07 47.1   699 – Lowell Observatory-LONEOS MPS 12030
1999 11 03.31037 02 18 39.38 +20 58 51.2 18.4   704 – Lincoln Laboratory ETS, New Mexico MPS 7400
1999 11 03.32644 02 18 38.53 +20 58 46.1 18.4   678 – Fountain Hills MPS 7400
1999 11 03.32648 02 18 38.36 +20 58 46.0 18.3   704 – Lincoln Laboratory ETS, New Mexico MPS 7400
1999 11 03.33153 02 18 38.08 +20 58 45.0 17.7   678 – Fountain Hills MPS 7400
1999 11 03.34262 02 18 37.26 +20 58 41.8 17.7   704 – Lincoln Laboratory ETS, New Mexico MPS 7400
1999 11 03.35870 02 18 36.26 +20 58 36.9 17.8   704 – Lincoln Laboratory ETS, New Mexico MPS 7400
1999 11 03.37477 02 18 35.20 +20 58 32.7 18.0   704 – Lincoln Laboratory ETS, New Mexico MPS 7400
1999 11 04.23433 02 17 42.14 +20 54 32.4 18.1   704 – Lincoln Laboratory ETS, New Mexico MPS 7400
1999 11 04.25086 02 17 41.05 +20 54 27.4 18.5   704 – Lincoln Laboratory ETS, New Mexico MPS 7400
1999 11 04.26739 02 17 39.98 +20 54 23.0 18.4   704 – Lincoln Laboratory ETS, New Mexico MPS 7400
1999 11 04.28390 02 17 38.90 +20 54 17.9 18.3   704 – Lincoln Laboratory ETS, New Mexico MPS 7400
1999 11 04.30080 02 17 37.78 +20 54 13.5 18.7   704 – Lincoln Laboratory ETS, New Mexico MPS 7400
1999 11 05.20942 02 16 41.80 +20 49 52.2 17.6   678 – Fountain Hills MPS 7400
1999 11 05.23560 02 16 40.10 +20 49 45.5 17.5   678 – Fountain Hills MPS 7400
1999 11 11.31971 02 10 35.59 +20 18 49.7 17.9 R 703 – Catalina Sky Survey MPS 7400
1999 11 11.33202 02 10 34.85 +20 18 46.0 18.1 R 703 – Catalina Sky Survey MPS 7400
1999 11 11.34425 02 10 34.11 +20 18 42.1 17.8 R 703 – Catalina Sky Survey MPS 7400
1999 11 11.35659 02 10 33.37 +20 18 38.0 17.8 R 703 – Catalina Sky Survey MPS 7400
1999 12 03.06968 01 56 06.97 +18 31 01.7 18.2 R 699 – Lowell Observatory-LONEOS MPS 7834
1999 12 03.10019 01 56 06.28 +18 30 55.4   699 – Lowell Observatory-LONEOS MPS 7834
1999 12 03.13071 01 56 05.67 +18 30 48.3   699 – Lowell Observatory-LONEOS MPS 7834
1999 12 04.11986 01 55 48.64 +18 26 58.1 18.3 R 703 – Catalina Sky Survey MPS 7834
1999 12 04.13199 01 55 48.40 +18 26 56.4 18.3 R 703 – Catalina Sky Survey MPS 7834
1999 12 04.14413 01 55 48.28 +18 26 53.0 18.2 R 703 – Catalina Sky Survey MPS 7834
1999 12 04.15624 01 55 48.03 +18 26 50.8 18.3 R 703 – Catalina Sky Survey MPS 7834
1999 12 12.14924 01 54 53.00 +18 01 38.1 19.1 R 703 – Catalina Sky Survey MPS 7834
1999 12 12.16142 01 54 52.99 +18 01 36.1 18.3 R 703 – Catalina Sky Survey MPS 7834
1999 12 12.17357 01 54 53.00 +18 01 34.0 18.8 R 703 – Catalina Sky Survey MPS 7834
1999 12 12.18572 01 54 52.94 +18 01 31.4 19.0 R 703 – Catalina Sky Survey MPS 7834
2000 01 04.07558 02 05 04.93 +17 51 54.6 19.3   704 – Lincoln Laboratory ETS, New Mexico MPS 8587
2000 01 04.09065 02 05 05.55 +17 51 56.7 19.2   704 – Lincoln Laboratory ETS, New Mexico MPS 8587
2000 01 04.10568 02 05 06.23 +17 51 58.3 19.2   704 – Lincoln Laboratory ETS, New Mexico MPS 8587
2000 01 04.13567 02 05 07.70 +17 52 00.7 19.2   704 – Lincoln Laboratory ETS, New Mexico MPS 8587
2000 01 06.09200 02 06 47.55 +17 55 17.2 19.4   704 – Lincoln Laboratory ETS, New Mexico MPS 8587
2000 01 06.10685 02 06 48.23 +17 55 19.9 20.0   704 – Lincoln Laboratory ETS, New Mexico MPS 8587
2000 01 06.12180 02 06 49.07 +17 55 20.8 19.4   704 – Lincoln Laboratory ETS, New Mexico MPS 8587
2000 01 06.13667 02 06 49.85 +17 55 22.7 19.3   704 – Lincoln Laboratory ETS, New Mexico MPS 8587
2002 07 29.23234 21 45 24.78 -13 49 11.9 19.9   644 – Palomar Mountain/NEAT MPS 60846
2002 07 29.23893 21 45 24.42 -13 49 12.5 20.3   644 – Palomar Mountain/NEAT MPS 60846
2002 07 29.29539 21 45 21.36 -13 49 22.7 19.5   644 – Palomar Mountain/NEAT MPS 60846
2002 07 29.30197 21 45 21.04 -13 49 23.6 19.6   644 – Palomar Mountain/NEAT MPS 60846
2002 07 29.35867 21 45 17.92 -13 49 34.1 19.3   644 – Palomar Mountain/NEAT MPS 60846
2002 07 29.37308 21 45 17.16 -13 49 36.0 19.3   644 – Palomar Mountain/NEAT MPS 60846
2002 08 08.35401 21 35 45.29 -14 21 24.4 19.0   644 – Palomar Mountain/NEAT MPS 60846
2002 08 08.36573 21 35 44.53 -14 21 26.6 18.8   644 – Palomar Mountain/NEAT MPS 60846
2002 08 08.37617 21 35 43.87 -14 21 28.6 18.9   644 – Palomar Mountain/NEAT MPS 60846
2002 08 16.27944 21 27 32.33 -14 48 08.5 19.7 V 291 – LPL/Spacewatch II MPS 59643
2002 08 16.30035 21 27 30.96 -14 48 12.8 19.5 V 291 – LPL/Spacewatch II MPS 59643
2002 08 16.32168 21 27 29.58 -14 48 17.0 19.5 V 291 – LPL/Spacewatch II MPS 59643
2002 08 17.35753 21 26 24.76 -14 51 42.7 18.7   644 – Palomar Mountain/NEAT MPS 59643
2002 08 17.38108 21 26 23.21 -14 51 47.2 19.0   644 – Palomar Mountain/NEAT MPS 59643
2002 08 17.40406 21 26 21.78 -14 51 51.4 19.3   644 – Palomar Mountain/NEAT MPS 59643
2002 08 30.19744 21 13 45.93 -15 29 32.0 20.0 V 291 – LPL/Spacewatch II MPS 60846
2002 08 30.22190 21 13 44.55 -15 29 35.8 20.1 V 291 – LPL/Spacewatch II MPS 60846
2002 08 30.24598 21 13 43.20 -15 29 39.2 20.1 V 291 – LPL/Spacewatch II MPS 60846
2002 09 14.12429 21 02 55.20 -15 55 51.4 20.0   644 – Palomar Mountain/NEAT MPS 60846
2002 09 14.13478 21 02 54.85 -15 55 52.4 19.9   644 – Palomar Mountain/NEAT MPS 60846
2002 09 14.14526 21 02 54.52 -15 55 52.6 20.1   644 – Palomar Mountain/NEAT MPS 60846
2003 10 24.47439 09 04 36.24 +18 53 08.7 20.2   704 – Lincoln Laboratory ETS, New Mexico MPS 87680
2003 10 24.48631 09 04 37.47 +18 53 03.4 19.6   704 – Lincoln Laboratory ETS, New Mexico MPS 87680
2003 10 24.49819 09 04 38.57 +18 52 58.9 19.9   704 – Lincoln Laboratory ETS, New Mexico MPS 87680
2003 12 22.40247 10 08 55.91 +12 47 41.3 19.4 C 704 – Lincoln Laboratory ETS, New Mexico MPS 293936
2003 12 22.41557 10 08 56.21 +12 47 38.4 19.3 C 704 – Lincoln Laboratory ETS, New Mexico MPS 293936
2003 12 22.42883 10 08 56.50 +12 47 37.0 19.2 C 704 – Lincoln Laboratory ETS, New Mexico MPS 293936
2003 12 22.44199 10 08 56.68 +12 47 33.7 19.0 C 704 – Lincoln Laboratory ETS, New Mexico MPS 293936
2003 12 25.433640 10 09 40.713 +12 39 08.28 19.75 V 645 – Apache Point-Sloan Digital Sky Survey MPS 136376
